sat.trackr.live / text

‹ back to catalog

STARLINK-37430

NORAD 68863 · 2026-094AA

PAYLOAD ACTIVE UNKNOWN

§ Identity

Operator
Country
US
Launch date
2026-04-26
Launch site
AFWTR
Launch vehicle
Mass (kg)
RCS (m²)

Purposes: comms

External: N2YO · Heavens-Above · Gunter

§ Orbital elements

Epoch: 2026-09-19T23:40:17.806944Z

Period
93.91 min
Inclination
97.2851°
Eccentricity
0.0001330
Mean motion
15.33463563 rev/d
Perigee alt
464.6 km
Apogee alt
466.4 km
Semi-major
6,843.6 km
B*
4.1776e-4
RAAN
276.1901°
Arg perigee
51.8047°
Mean anomaly
308.3315°
Rev number
2,258

§ Raw data

STARLINK-374301 68863U 26094AA  26262.98631721  .00013444  00000+0  41776-3 0  99902 68863  97.2851 276.1901 0001330  51.8047 308.3315 15.33463563 22582

JSON: /api/v1/satellites/68863 · /tle

For live sub-satellite position, see the globe view (requires WebGL).

§ Visibility from observer

Set your observer location to see the next 7 days of passes ≥ 10°. The values pass through the URL so the page stays shareable.

No JS? Fill the form by hand. The geolocation button needs JavaScript.